User: anonymous   Login
Location: Unspecified
(0.0000°N, 0.0000°E)
Time: 18:55:22
(UTC+00:00)
Language:

A-11 Canister half - Orbit

View from above orbital plane
View from above orbital plane
View from above satellite
View from above satellite

Ground track
Ground track

The orbit data is extracted from the following two-line orbital elements,

1 00051U 60009C   21212.54537256 -.00000136  00000-0 -50159-3 0  9991
2 00051  47.2117 161.7920 0109016 299.6942  59.3031 12.18277417713961
Epoch (UTC): 31 July 2021 13:05:20
Eccentricity: 0.0109016
inclination: 47.2117°
perigee height: 1513 km
apogee height: 1687 km
right ascension of ascending node: 161.7920°
argument of perigee: 299.6942°
revolutions per day: 12.18277417
mean anomaly at epoch: 59.3031°
orbit number at epoch: 71396

The dashed part of the orbit path shows where the satellite is in the earth's shadow,  

DLR